Location: *
(39.6167°S, 171.5333°W)
Time: 16:33:34
(UTC+00:00)

Gbstr 26 Del rocket - Visible Passes

Search period start: 26 September 2021 00:00
Search period end: 06 October 2021 00:00
Orbit: 492 x 1263 km, 51.8° (Epoch: 26 September)

Date Brightness Start Highest point End Pass type
(mag) Time Alt. Az. Time Alt. Az. Time Alt. Az.
30 Sep 6.0 16:32:30 10° NNE 16:34:52 13° NE 16:37:06 10° E visible
01 Oct 5.8 16:26:27 10° N 16:29:52 18° NE 16:32:54 10° E visible
02 Oct 5.3 16:20:46 10° N 16:24:52 24° NE 16:28:26 10° E visible
03 Oct 4.9 16:15:17 10° NNW 16:19:52 31° NE 16:23:48 10° ESE visible
04 Oct 4.5 16:09:56 10° NNW 16:14:54 39° NE 16:19:03 10° ESE visible
05 Oct 4.0 16:04:41 10° NNW 16:09:55 51° NE 16:14:15 10° ESE visible
